Home   Weather   Fort St. John   Past weeks

Flag for Canada Past Weather in Fort St. John, British Columbia, Canada — Yesterday and Last 2 Weeks

Now
27 °F

Partly sunny.


Feels Like: 15 °F
Forecast: 20 / 34 °F
Wind: 14 mph from Southeast

Location: Fort St John

Current Time: Dec 2, 2016 at 12:55:11 pm

Latest Report: Dec 2, 2016 at 12:00 pm


Visibility: 15 mi

Pressure: 29.67 "Hg (27.19 "Hg at 689m altitude)

Humidity: 74%

Dew Point: 19 °F

Location of Fort St. JohnLocation

Past Weather in Fort St. John — Graph

°F

Fort St. John Temperature Yesterday

Maximum temperature yesterday: 28 °F (at 12:00 am)
Minimum temperature yesterday: 18 °F (at 6:00 pm)
Average temperature yesterday: 23 °F

High & Low Weather Summary for the Past Weeks

 TemperatureHumidityPressure
High28 °F (Nov 30, 10:00 pm)100% (Dec 1, 8:00 am)30.51 "Hg (Dec 1, 8:00 am)
Low-2 °F (Nov 29, 5:00 am)68% (Dec 1, 4:00 pm)29.46 "Hg (Nov 27, 5:00 pm)
Average15 °F88%29.94 "Hg
* Reported Nov 17 11:00 am — Dec 2 11:00 am, Fort St. John, Weather by CustomWeather, © 2016

Note: Actual official high and low records may vary slightly from our data, if they occured in-between our weather recording intervals... More about our weather records

Advertising

Fort St. John Weather History for the Previous 24 Hours

Scroll right to see more
 ConditionsComfort  
Time TempWeatherWind HumidityBarometerVisibility
11:00 am
Fri, Dec 2
25 °FBroken clouds.15 mph74%29.67 "Hg15 mi
10:00 am25 °FPassing clouds.14 mph80%29.70 "Hg15 mi
9:00 am23 °FMostly cloudy.14 mph80%29.72 "Hg15 mi
8:00 am23 °FOvercast.13 mph80%29.75 "Hg15 mi
7:00 am23 °FPartly cloudy.13 mph80%29.77 "Hg15 mi
6:00 am23 °FPassing clouds.16 mph74%29.81 "Hg15 mi
5:00 am19 °FPassing clouds.14 mph79%29.88 "Hg15 mi
4:00 am19 °FPassing clouds.12 mph79%29.91 "Hg15 mi
3:00 am21 °FClear.10 mph80%29.93 "Hg15 mi
2:00 am19 °FClear.12 mph79%29.97 "Hg15 mi
1:00 am21 °FPassing clouds.10 mph80%29.99 "Hg15 mi
12:00 am19 °FPassing clouds.8 mph79%30.01 "Hg15 mi
11:00 pm
Thu, Dec 1
21 °FPassing clouds.9 mph74%30.02 "Hg15 mi
10:00 pm21 °FPassing clouds.9 mph80%30.03 "Hg15 mi
9:00 pm21 °FPassing clouds.10 mph80%30.05 "Hg15 mi
8:00 pm21 °FPassing clouds.9 mph80%30.06 "Hg15 mi
7:00 pm21 °FPassing clouds.10 mph80%30.05 "Hg15 mi
6:00 pm18 °FPassing clouds.10 mph86%30.06 "Hg15 mi
5:00 pm19 °FPassing clouds.8 mph79%30.06 "Hg15 mi
4:00 pm23 °FPassing clouds.7 mph68%30.05 "Hg15 mi
3:00 pm25 °FPassing clouds.6 mph74%30.06 "Hg15 mi
2:00 pm25 °FPassing clouds.6 mph74%30.06 "Hg15 mi
1:00 pm23 °FPassing clouds.2 mph80%30.07 "Hg15 mi
12:00 pm21 °FPassing clouds.5 mph86%30.06 "Hg15 mi
Weather by CustomWeather, © 2016

See weather overviewHow to use our weather pages